Weather History for KMPO - May, 2014

Change the Weather History Date:

Saturday, May 10, 2014

  Actual Average Record
Temperature  
Mean Temperature 67 °F 54 °F  
Max Temperature 76 °F 64 °F 85 °F (1979)
Min Temperature 58 °F 43 °F 24 °F (1962)
Degree Days  
Heating Degree Days 0 12  
Month to date heating degree days 115 130  
Since 1 July heating degree days 7316 6824  
Cooling Degree Days 2 0  
Month to date cooling degree days 2 0  
Year to date cooling degree days 2 4  
Growing Degree Days 17 (Base 50)    
Moisture  
Dew Point 56 °F    
Average Humidity 72    
Maximum Humidity 100    
Minimum Humidity 43    
Precipitation  
Precipitation T in 0.11 in 1.90 in (1919)
Month to date precipitation 0.49 1.14  
Year to date precipitation 14.94 14.25  
Sea Level Pressure  
Sea Level Pressure 29.91 in    
Wind  
Wind Speed 11 mph (WSW)    
Max Wind Speed 23 mph    
Max Gust Speed 30 mph    
Visibility 6 miles    
Events Fog    
T = Trace of Precipitation, MM = Missing Value Source: NWS Daily Summary

Daily Weather History Graph

Daily Weather History Graph

Search for Another Location

Airport or City:

Trip Planner

Search our weather history database for the weather conditions in past years. The results will help you decide how hot, cold, wet, or windy it might be!

Date:

Astronomy

May. 10, 2014 Rise Set
Actual Time 5:48 AM EDT 8:07 PM EDT
Civil Twilight 5:17 AM EDT 8:38 PM EDT
Nautical Twilight 4:39 AM EDT 9:17 PM EDT
Astronomical Twilight 3:57 AM EDT 9:59 PM EDT
Moon 3:59 PM EDT (5/10) 3:22 AM EDT (5/10)
Length of Visible Light 15h 21m
Length of Day
14h 19m
Waxing Gibbous, 82% of the Moon is Illuminated
May 10
Waxing Gibbous
May 14
Full
May 21
Last Quarter
May 28
New
Jun 5
First Quarter

Hourly Weather History & Observations

Time (EDT) Temp. Dew Point Humidity Pressure Visibility Wind Dir Wind Speed Gust Speed Precip Events Conditions
1:53 AM 59.0 °F 57.9 °F 96% 29.95 in 0.2 mi SSW 3.5 mph - N/A Fog Fog
2:53 AM 59.0 °F 57.9 °F 96% 29.92 in 0.2 mi SSW 6.9 mph - N/A Fog Fog
3:53 AM 59.0 °F 57.9 °F 96% 29.91 in 0.2 mi SW 6.9 mph - N/A Fog Fog
4:04 AM 59.0 °F 57.9 °F 96% 29.92 in 0.5 mi SW 5.8 mph - N/A Fog Fog
4:39 AM 60.1 °F 57.9 °F 93% 29.92 in 1.0 mi WSW 8.1 mph - 0.00 in   Overcast
4:53 AM 60.1 °F 57.9 °F 93% 29.90 in 2.0 mi WSW 6.9 mph - 0.00 in   Overcast
5:10 AM 60.1 °F 57.9 °F 93% 29.91 in 1.8 mi WSW 6.9 mph - N/A   Overcast
5:30 AM 60.1 °F 57.9 °F 93% 29.92 in 2.0 mi WSW 6.9 mph - N/A   Overcast
5:53 AM 60.1 °F 57.9 °F 93% 29.91 in 2.5 mi West 8.1 mph - N/A   Overcast
6:18 AM 60.1 °F 59.0 °F 96% 29.92 in 1.5 mi West 10.4 mph - N/A   Overcast
7:41 AM 61.0 °F 59.0 °F 93% 29.95 in 2.0 mi West 9.2 mph - N/A   Overcast
7:53 AM 62.1 °F 59.0 °F 90% 29.94 in 2.0 mi West 10.4 mph - N/A   Overcast
8:08 AM 62.1 °F 59.0 °F 90% 29.95 in 3.0 mi West 11.5 mph - N/A   Mostly Cloudy
8:21 AM 64.0 °F 60.1 °F 87% 29.95 in 4.0 mi West 10.4 mph - N/A   Scattered Clouds
8:44 AM 64.9 °F 59.0 °F 81% 29.95 in 6.0 mi West 13.8 mph 23.0 mph N/A   Haze
8:51 AM 66.2 °F 59.0 °F 78% 29.95 in 7.0 mi West 12.7 mph - N/A   Mostly Cloudy
8:53 AM 66.0 °F 59.0 °F 78% 29.94 in 8.0 mi West 11.5 mph - N/A   Mostly Cloudy
9:12 AM 66.9 °F 57.9 °F 73% 29.95 in 10.0 mi West 15.0 mph 23.0 mph N/A   Scattered Clouds
9:53 AM 68.0 °F 57.0 °F 68% 29.94 in 10.0 mi West 16.1 mph 23.0 mph N/A   Scattered Clouds
10:53 AM 71.1 °F 55.9 °F 59% 29.94 in 10.0 mi West 20.7 mph 27.6 mph N/A   Scattered Clouds
11:53 AM 72.0 °F 54.0 °F 53% 29.94 in 10.0 mi West 16.1 mph 26.5 mph N/A   Scattered Clouds
12:53 PM 73.0 °F 53.1 °F 49% 29.92 in 10.0 mi WSW 15.0 mph 24.2 mph N/A   Mostly Cloudy
1:53 PM 75.0 °F 54.0 °F 48% 29.89 in 10.0 mi SW 15.0 mph - N/A   Partly Cloudy
2:53 PM 75.0 °F 51.1 °F 43% 29.87 in 10.0 mi WSW 15.0 mph 24.2 mph N/A   Mostly Cloudy
3:53 PM 72.0 °F 51.1 °F 48% 29.87 in 10.0 mi WSW 15.0 mph 26.5 mph 0.00 in   Overcast
4:53 PM 69.1 °F 55.0 °F 61% 29.86 in 10.0 mi WSW 13.8 mph 21.9 mph 0.00 in   Overcast
5:53 PM 66.9 °F 55.0 °F 66% 29.87 in 10.0 mi West 11.5 mph - 0.00 in   Mostly Cloudy
6:53 PM 66.0 °F 55.0 °F 68% 29.87 in 10.0 mi WSW 9.2 mph - N/A   Mostly Cloudy
7:53 PM 64.0 °F 53.1 °F 67% 29.88 in 10.0 mi WSW 8.1 mph - N/A   Clear
8:53 PM 63.0 °F 53.1 °F 70% 29.89 in 10.0 mi WSW 8.1 mph - N/A   Clear
9:53 PM 63.0 °F 54.0 °F 72% 29.90 in 10.0 mi West 11.5 mph - N/A   Overcast
10:53 PM 62.1 °F 54.0 °F 75% 29.90 in 10.0 mi West 10.4 mph - N/A   Overcast
11:53 PM 61.0 °F 54.0 °F 78% 29.89 in 10.0 mi West 10.4 mph - 0.00 in   Partly Cloudy